1306972826063,2.12292
1306972886063,2.13396
1306972946063,2.11326
1306973006063,2.13708
1306973066063,2.14019
1306973126063,2.13893
1306973186063,2.12902
1306973246063,2.13758
1306973306063,2.13834
1306973366063,2.14041
1306973426063,2.15514
1306973486063,2.14476
1306973546063,2.14604
1306973606063,2.13349
1306973666063,2.14602
1306973726063,2.12582
1306973786063,2.13510
1306973846063,2.12764
1306973906063,2.13507
1306973966063,2.14473
1306974026063,2.13820
1306974086063,2.12186
1306974146063,2.12289
1306974206063,2.13531
1306974266063,2.12786
1306974326063,2.14794
1306974386063,2.15336
1306974446063,2.14112
1306974506063,2.14987
1306974566063,2.13800
1306974626063,2.16007
1306974686063,2.13515
1306974746063,2.12973
1306974806063,2.14578
1306974866063,2.13976
1306974926063,2.13521
1306974986063,2.16539
1306975046063,2.14187
1306975106063,2.14000
1306975166063,2.13081
1306975226063,2.14699
1306975286063,2.14947
1306975346063,2.14792
1306975406063,2.15638
1306975466063,2.15904
1306975526063,2.14952
1306975586063,2.14675
1306975646063,2.16491
1306975706063,2.14174
1306975766063,2.14875
1306975826063,2.15622
1306975886063,2.15362
1306975946063,2.17012
1306976006063,2.14288
1306976066063,2.14323
1306976126063,2.14644
1306976186063,2.15575
1306976246063,2.13562
1306976306063,2.13163
1306976366063,2.12801
1306976426073,2.14071
1306976486073,2.14000
1306976546073,2.13557
1306976606073,2.15922
1306976666073,2.16271
1306976726073,2.15623
1306976786073,2.15071
1306976846073,2.15797
1306976906073,2.13443
1306976966073,2.13966
1306977026073,2.15059
1306977086073,2.14323
1306977146073,2.15919
1306977206073,2.14741
1306977266073,2.14930
1306977326073,2.15037
1306977386073,2.15168
1306977446073,2.13566
1306977506073,2.15257
1306977566073,2.14792
1306977626073,2.14678
1306977686073,2.13382
1306977746073,2.15657
1306977806073,2.14721
1306977866073,2.15641
1306977926073,2.16843
1306977986073,2.14395
1306978046073,2.15669
1306978106073,2.15093
1306978166073,2.16195
1306978226073,2.13650
1306978286073,2.15345
1306978346073,2.14463
1306978406073,2.15032
1306978466073,2.14909
1306978526073,2.14438
1306978586073,2.13946
1306978646073,2.14951
1306978706073,2.14731
1306978766073,2.14472
1306978826073,2.15332
1306978886073,2.15022
1306978946073,2.13553
1306979006073,2.13800
1306979066073,2.14136
1306979126073,2.13895
1306979186073,2.12982
1306979246073,2.14966
1306979306073,2.13647
1306979366073,2.13654
1306979426073,2.12521
1306979486073,2.15459
1306979546073,2.12836
1306979606073,2.13609
1306979666073,2.11835
1306979726073,2.11719
1306979786073,2.12872
1306979846073,2.12676
1306979906073,2.14013
1306979966073,2.12203
1306980026083,2.13752
1306980086083,2.13042
1306980146083,2.11950
1306980206083,2.12463
1306980266083,2.14286
1306980326083,2.12680
1306980386083,2.12814
1306980446083,2.12402
1306980506083,2.11589
1306980566083,2.13279
1306980626083,2.13802
1306980686083,2.13409
1306980746083,2.13445
1306980806083,2.13308
1306980866083,2.13303
1306980926083,2.13947
1306980986083,2.13058
1306981046083,2.14542
1306981106083,2.13271
1306981166083,2.13923
1306981226083,2.13216
1306981286083,2.14690
1306981346083,2.13807
1306981406083,2.12879
1306981466083,2.13906
1306981526083,2.14006
1306981586083,2.13922
1306981646083,2.13547
1306981706083,2.14824
1306981766083,2.13072
1306981826083,2.15288
1306981886083,2.14142
1306981946083,2.14896
1306982006083,2.13775
1306982066083,2.12903
1306982126083,2.15120
1306982186083,2.14548
1306982246083,2.12752
1306982306083,2.15619
1306982366083,2.13910
1306982426083,2.14103
1306982486083,2.13920
1306982546083,2.13000
1306982606083,2.14524
1306982666083,2.14785
1306982726083,2.13634
1306982786083,2.14416
1306982846083,2.14454
1306982906083,2.15136
1306982966083,2.15549
1306983026083,2.13542
1306983086083,2.15778
1306983146083,2.17178
1306983206083,2.14408
1306983266083,2.15457
1306983326083,2.15447
1306983386083,2.15672
1306983446083,2.13850
1306983506083,2.13286
1306983566083,2.13205
1306983626093,2.13489
1306983686093,2.13066
1306983746093,2.14294
1306983806093,2.16325
1306983866093,2.13809
1306983926093,2.12745
1306983986093,2.13100
1306984046093,2.12132
1306984106093,2.03912
1306984166093,2.11249
1306984226093,2.13831
1306984286093,2.13507
1306984346093,2.11361
1306984406093,2.10572
1306984466093,2.11920
1306984526093,2.11179
1306984586093,2.10877
1306984646093,2.09126
1306984706093,2.11039
1306984766093,2.10395
1306984826093,2.10055
1306984886093,2.12182
1306984946093,2.11435
1306985006093,2.08807
1306985066093,2.09918
1306985126093,2.09724
1306985186093,2.10459
1306985246093,2.09347
1306985306093,2.09909
1306985366093,2.09354
1306985426093,2.09661
1306985486093,2.08727
1306985546093,2.08593
1306985606093,2.07590
1306985666093,2.08581
1306985726093,2.07680
1306985786093,2.08014
1306985846093,2.08283
1306985906093,2.08904
1306985966093,2.07620
1306986026093,2.07960
1306986086093,2.07985
1306986146093,2.07375
1306986206093,2.07628
1306986266093,2.07402
1306986326093,2.06056
1306986386093,2.06487
1306986446093,2.08377
1306986506093,2.08398
1306986566093,2.08473
1306986626093,2.06648
1306986686093,2.07411
1306986746093,1.96632
1306986806093,2.09019
1306986866093,2.08081
1306986926093,2.07153
1306986986093,2.06874
1306987046093,2.07324
1306987106093,2.06852
1306987166093,2.07020
1306987226102,2.07683
1306987286102,2.07754
1306987346102,2.07144
1306987406102,2.05691
1306987466102,2.07295
1306987526102,2.06314
1306987586102,2.07236
1306987646102,2.07003
1306987706102,2.06919
1306987766102,2.05922
1306987826102,2.04973
1306987886102,2.07359
1306987946102,2.07580
1306988006102,2.05941
1306988066102,2.06620
1306988126102,2.06555
1306988186102,2.08888
1306988246102,2.06049
1306988306102,2.07550
1306988366102,2.07365
1306988426102,2.05593
1306988486102,2.07123
1306988546102,2.06063
1306988606102,2.06356
1306988666102,2.08118
1306988726102,2.06201
1306988786102,2.06374
1306988846102,2.06705
1306988906102,2.05908
1306988966102,2.06733
1306989026102,2.06646
1306989086102,2.06589
1306989146102,2.08323
1306989206102,2.10406
1306989266102,2.05312
1306989326102,2.07567
1306989386102,2.05344
1306989446102,2.06897
1306989506102,2.05280
1306989566102,2.06567
1306989626102,2.07510
1306989686102,2.06687
1306989746102,2.07184
1306989806102,2.06827
1306989866102,2.08010
1306989926102,2.05829
1306989986102,2.06464
1306990046102,2.06247
1306990106102,2.07309
1306990166102,2.05064
1306990226102,2.06048
1306990286102,2.06985
1306990346102,2.06108
1306990406102,2.07754
1306990466102,2.07359
1306990526102,2.07258
1306990586102,2.06091
1306990646102,2.06867
1306990706102,2.07607
1306990766102,2.07889
1306990826112,2.05880
1306990886112,2.07720
1306990946112,2.05352
1306991006112,2.07311
1306991066112,2.06962
1306991126112,2.06523
1306991186112,2.21657
1306991246112,2.07640
1306991306112,2.07506
1306991366112,2.09555
1306991426112,2.07133
1306991486112,2.08942
1306991546112,2.07338
1306991606112,2.09245
1306991666112,2.08105
1306991726112,2.07986
1306991786112,2.08971
1306991846112,2.07515
1306991906112,2.07307
1306991966112,2.07814
1306992026112,2.08546
1306992086112,2.06870
1306992146112,2.17740
1306992206112,2.09040
1306992266112,2.08153
1306992326112,2.06668
1306992386112,2.09686
1306992446112,2.08554
1306992506112,2.07261
1306992566112,2.06524
1306992626112,2.08693
1306992686112,2.09474
1306992746112,2.08290
1306992806112,2.07945
1306992866112,2.07875
1306992926112,2.09364
1306992986112,2.08560
1306993046112,2.09549
1306993106112,2.07521
1306993166112,2.07675
1306993226112,2.08516
1306993286112,2.08360
1306993346112,2.08573
1306993406112,2.06170
1306993466112,2.08036
1306993526112,2.08544
1306993586112,2.07806
1306993646112,2.07028
1306993706112,2.08891
1306993766112,2.08397
1306993826112,2.09766
1306993886112,2.08577
1306993946112,2.07271
1306994006112,2.09088
1306994066112,2.09406
1306994126112,2.10273
1306994186112,2.08607
1306994246112,2.09455
1306994306112,2.10546
1306994366112,2.10233
1306994426121,2.09528
1306994486121,2.10988
1306994546121,2.09964
1306994606121,2.09999
1306994666121,2.11519
1306994726121,2.09701
1306994786121,2.10608
1306994846121,2.10810
1306994906121,2.11120
1306994966121,2.11575
1306995026121,2.11106
1306995086121,2.10113
1306995146121,2.11292
1306995206121,2.07618
1306995266121,2.07153
1306995326121,2.12651
1306995386121,2.11249
1306995446121,2.12166
1306995506121,2.12557
1306995566121,2.12233
1306995626121,2.13472
1306995686121,2.12715
1306995746121,2.11685
1306995806121,2.11601
1306995866121,2.11000
1306995926121,2.11656
1306995986121,2.10425
1306996046121,2.13017
1306996106121,2.11136
1306996166121,2.12285
1306996226121,2.11917
1306996286121,2.13211
1306996346121,2.12521
1306996406121,2.14478
1306996466121,2.15845
1306996526121,2.13957
1306996586121,2.15046
1306996646121,2.15080
1306996706121,2.14124
1306996766121,2.15409
1306996826121,2.14882
1306996886121,2.15544
1306996946121,2.15390
1306997006121,2.14559
1306997066121,2.14571
1306997126121,2.13589
1306997186121,2.15223
1306997246121,2.23329
1306997306121,2.13159
1306997366121,2.15401
1306997426121,2.16298
1306997486121,2.15095
1306997546121,2.15631
1306997606121,2.16177
1306997666121,2.14960
1306997726121,2.14563
1306997786121,2.13598
1306997846121,2.14697
1306997906121,2.13708
1306997966121,2.14044
1306998026130,2.15602
1306998086130,2.14599
1306998146130,2.15167
1306998206130,2.13795
1306998266130,2.13339
1306998326130,2.14421
1306998386130,2.13371
1306998446130,2.13458
1306998506130,2.14960
1306998566130,2.13817
1306998626130,2.14547
1306998686130,2.09074
1306999226130,2.16397
1306999286130,2.09854
1306999346130,2.13926
1306999406130,2.13971
1306999466130,2.14534
1306999526130,2.15142
1306999586130,2.14437
1306999646130,2.15327
1306999706130,2.20226
1306999766130,2.15016
1306999826130,2.16226
1306999886130,2.18109
1306999946130,2.18588
1307000006130,2.18320
1307000066130,2.18020
1307000126130,2.18489
1307000186130,2.20176
1307000246130,2.20212
1307000306130,2.22222
1307000366130,2.23513
1307000426130,2.19235
1307000486130,2.21742
1307000546130,2.23031
1307000606130,2.22950
1307000666130,2.23286
1307000726130,2.25239
1307000786130,2.25519
1307000846130,2.23867
1307000906130,2.24229
1307000966130,2.26136
1307001026130,2.26099
1307001086130,2.26041
1307001146130,2.25618
1307001206130,2.26853
1307001266130,2.28721
1307001326130,2.29282
1307001386130,2.27759
1307001446130,2.28081
1307001506130,2.29997
1307001566130,2.26780
1307001626139,2.27717
1307001686139,2.25311
1307001746139,2.25389
1307001806139,2.25583
1307001866139,2.25002
1307001926139,2.22935
1307001986139,2.22115
1307002046139,2.19423
1307002106139,2.21145
1307002166139,2.20722
1307002226139,2.20892
1307002286139,2.20421
1307002346139,2.21572
1307002406139,2.20132
1307002466139,2.18977
1307002526139,2.19011
1307002586139,2.17655
1307002646139,2.17837
1307002706139,2.16861
1307002766139,2.16666
1307002826139,2.18113
1307002886139,2.18026
1307002946139,2.18202
1307003006139,2.17191
1307003066139,2.16214
1307003126139,2.17321
1307003186139,2.18189
1307003246139,2.16048
1307003306139,2.17162
1307003366139,2.15808
1307003426139,2.17503
1307003486139,2.15267
1307003546139,2.15232
1307003606139,2.16312
1307003666139,2.16079
1307003726139,2.16088
1307003786139,2.14530
1307003846139,2.15800
1307003906139,2.15581
1307003966139,2.15498
1307004026139,2.14264
1307004086139,2.13910
1307004146139,2.14948
1307004206139,2.14690
1307004266139,2.13877
1307004326139,2.15083
1307004386139,2.15787
1307004446139,2.15022
1307004506139,2.13424
1307004566139,2.15215
1307004626139,2.14535
1307004686139,2.14624
1307004746139,2.15219
1307004806139,2.13676
1307004866139,2.13998
1307004926139,2.14744
1307004986139,2.13853
1307005046139,2.15810
1307005106139,2.14512
1307005166139,2.13579
1307005226148,2.15250
1307005286148,2.14579
1307005346148,2.14078
1307005406148,2.15353
1307005466148,2.14836
1307005526148,2.14618
1307005586148,2.15411
1307005646148,2.15337
1307005706148,2.15778
1307005766148,2.16392
1307005826148,2.15834
1307005886148,2.15767
1307005946148,2.14219
1307006006148,2.14828
1307006066148,2.14445
1307006126148,2.16567
1307006186148,2.16519
1307006246148,2.13699
1307006306148,2.16061
1307006366148,2.15834
1307006426148,2.15802
1307006486148,2.15969
1307006546148,2.16577
1307006606148,2.16414
1307006666148,2.16690
1307006726148,2.17466
1307006786148,2.18090
1307006846148,2.18203
1307006906148,2.18573
1307006966148,2.16856
1307007026148,2.15935
1307007086148,2.16783
1307007146148,2.18075
1307007206148,2.17251
1307007266148,2.17391
1307007326148,2.16542
1307007386148,2.17523
1307007446148,2.17753
1307007506148,2.16112
1307007566148,2.17309
1307007626148,2.16474
1307007686148,2.17990
1307007746148,2.17673
1307007806148,2.16150
1307007866148,2.16298
1307007926148,2.17133
1307007986148,2.19045
1307008046148,2.17904
1307008106148,2.20047
1307008166148,2.19006
1307008226148,2.21057
1307008286148,2.19892
1307008346148,2.21615
1307008406148,2.21122
1307008466148,2.19358
1307008526148,2.20807
1307008586148,2.20712
1307008646148,2.21147
1307008706148,2.20638
1307008766148,2.21008
1307008826157,2.19796
1307008886157,2.19962
1307008946157,2.19436
1307009006157,2.19683
1307009066157,2.19506
1307009126157,2.18701
1307009186157,2.18542
1307009246157,2.18751
1307009306157,2.18204
1307009366157,2.18593
1307009426157,2.17823
1307009486157,2.19521
1307009546157,2.17766
1307009606157,2.18350
1307009666157,2.17548
1307009726157,2.15924
1307009786157,2.18047
1307009846157,2.15562
1307009906157,2.14759
1307009966157,2.16888
1307010026157,2.15914
1307010086157,2.15847
1307010146157,2.15664
1307010206157,2.14857
1307010266157,2.15018
1307010326157,2.14157
1307010386157,2.13546
1307010446157,2.16042
1307010506157,2.15071
1307010566157,2.14950
1307010626157,2.16983
1307010686157,2.15433
1307010746157,2.15940
1307010806157,2.16352
1307010866157,2.15884
1307010926157,2.17169
1307010986157,2.16415
1307011046157,2.16175
1307011106157,2.17274
1307011166157,2.16637
1307011226157,2.16307
1307011286157,2.15470
1307011346157,2.17452
1307011406157,2.15048
1307011466157,2.16250
1307011526157,2.15757
1307011586157,2.15040
1307011646157,2.15828
1307011706157,2.14813
1307011766157,2.14567
1307011826157,2.14781
1307011886157,2.13399
1307011946157,2.14258
1307012006157,2.13386
1307012066157,2.15289
1307012126157,2.14976
1307012186157,2.13587
1307012246157,2.13657
1307012306157,2.14858
1307012366157,2.13348
1307012426166,2.12963
1307012486166,2.14978
1307012546166,2.13395
1307012606166,2.12357
1307012666166,2.12979
1307012726166,2.13238
1307012786166,2.12858
1307012846166,2.13472
1307012906166,2.13343
1307012966166,2.13535
1307013026166,2.14401
1307013086166,2.12688
1307013146166,2.14233
1307013206166,2.13297
1307013266166,2.13023
1307013326166,2.14274
1307013386166,2.13988
1307013446166,2.12896
1307013506166,2.13856
1307013566166,2.15068
1307013626166,2.14074
1307013686166,2.13138
1307013746166,2.13291
1307013806166,2.13509
1307013866166,2.14069
1307013926166,2.13748
1307013986166,2.12647
1307014046166,2.12062
1307014106166,2.13261
1307014166166,2.12609
1307014226166,2.12445
1307014286166,2.12746
1307014346166,2.12939
1307014406166,2.12963
1307014466166,2.12318
1307014526166,2.13689
1307014586166,2.12068
1307014646166,2.12617
1307014706166,2.13411
1307014766166,2.12773
1307014826166,2.13247
1307014886166,2.12788
1307014946166,2.13209
1307015006166,2.13333
1307015066166,2.11875
1307015126166,2.11495
1307015186166,2.11559
1307015246166,2.12876
1307015306166,2.13480
1307015366166,2.13153
1307015426166,2.11584
1307015486166,2.12740
1307015546166,2.11826
1307015606166,2.11061
1307015666166,2.12366
1307015726166,2.11650
1307015786166,2.12200
1307015846166,2.12540
1307015906166,2.12239
1307015966166,2.10572
1307016026175,2.11464
1307016086175,2.10618
1307016146175,2.11341
1307016206175,2.10823
1307016266175,2.10544
1307016326175,2.09152
1307016386175,2.08814
1307016446175,2.10044
1307016506175,2.09842
1307016566175,2.08883
1307016626175,2.08260
1307016686175,2.07846
1307016746175,2.08915
1307016806175,2.11014
1307016866175,2.07334
1307016926175,2.08993
1307016986175,2.07626
1307017046175,2.09448
1307017106175,2.08498
1307017166175,2.08915
1307017226175,2.06271
1307017286175,2.08180
1307017346175,2.06229
1307017406175,2.08658
1307017466175,2.08566
1307017526175,2.07439
1307017586175,2.07241
1307017646175,2.08553
1307017706175,2.07917
1307017766175,2.09065
1307017826175,2.08145
1307017886175,2.07175
1307017946175,2.07813
1307018006175,2.11807
1307018066175,2.05358
1307018126175,2.08796
1307018186175,2.06744
1307018246175,2.07724
1307018306175,2.07411
1307018366175,2.07964
1307018426175,2.06673
1307018486175,2.08513
1307018546175,2.07094
1307018606175,2.08062
1307018666175,2.08103
1307018726175,2.08035
1307018786175,2.07461
1307018846175,2.06451
1307018906175,2.07341
1307018966175,2.06901
1307019026175,2.06440
1307019086175,2.06947
1307019146175,2.06817
1307019206175,2.05809
1307019266175,2.08091
1307019326175,2.05390
1307019386175,2.06895
1307019446175,2.04814
1307019506175,2.06097
1307019566175,2.06655
1307019626184,2.05898
1307019686184,2.06807
1307019746184,2.06310
1307019806184,2.04833
1307019866184,2.07309
1307019926184,2.08409
1307019986184,2.07456
1307020046184,2.08203
1307020106184,2.05689
1307020166184,2.07204
1307020226184,2.07470
1307020286184,2.05799
1307020346184,2.07569
1307020406184,2.07561
1307020466184,2.06130
1307020526184,2.05588
1307020586184,2.06421
1307020646184,2.07263
1307020706184,2.08367
1307020766184,2.07346
1307020826184,2.09301
1307020886184,2.06866
1307020946184,2.06967
1307021006184,2.06695
1307021066184,2.06978
1307021126184,2.06168
1307021186184,2.08374
1307021246184,2.07135
1307021306184,2.07769
1307021366184,2.08096
1307021426184,2.10792
1307021486184,2.09260
1307021546184,2.08604
1307021606184,2.07610
1307021666184,2.06703
1307021726184,2.08302
1307021786184,2.09284
1307021846184,2.08473
1307021906184,2.06558
1307021966184,2.09807
1307022026184,2.07747
1307022086184,2.08850
1307022146184,2.09244
1307022206184,2.10489
1307022266184,2.10437
1307022326184,2.08635
1307022386184,2.10004
1307022446184,2.09673
1307022506184,2.09679
1307022566184,2.09317
1307022626184,2.09324
1307022686184,2.09793
1307022746184,2.08601
1307022806184,2.09866
1307022866184,2.09047
1307022926184,2.08405
1307022986184,2.09687
1307023046184,2.10218
1307023106184,2.11002
1307023166184,2.11065
1307023226193,2.11105
1307023286193,2.12234
1307023346193,2.11412
1307023406193,2.12029
1307023466193,2.11020
1307023526193,2.10532
1307023586193,2.10885
1307023646193,2.11426
1307023706193,2.14130
1307023766193,2.12271
1307023826193,2.12088
1307023886193,2.11583
1307023946193,2.11056
1307024006193,2.11669
1307024066193,2.11172
1307024126193,2.13320
1307024186193,2.11462
1307024246193,2.12458
1307024306193,2.13468
1307024366193,2.11325
1307024426193,2.09956
1307024486193,2.12885
1307024546193,2.15240
1307024606193,2.13462
1307024666193,2.12100
1307024726193,2.12315
1307024786193,2.13795
1307024846193,2.12026
1307024906193,2.12341
1307024966193,2.13279
1307025026193,2.11271
1307025086193,2.13807
1307025146193,2.11258
1307025206193,2.12829
1307025266193,2.13744
1307025326193,2.12470
1307025386193,2.12890
1307025446193,2.13488
1307025506193,2.13632
1307025566193,2.13592
1307025626193,2.13691
1307025686193,2.13892
1307025746193,2.13526
1307025806193,2.14415
1307025866193,2.13823
1307025926193,2.13772
1307025986193,2.12767
1307026046193,2.13308
1307026106193,2.13499
1307026166193,2.13549
1307026226193,2.16157
1307026286193,2.15819
1307026346193,2.14203
1307026406193,2.14317
1307026466193,2.11646
1307026526193,2.14037
1307026586193,2.15376
1307026646193,2.15572
1307026706193,2.16493
1307026766193,2.14276
1307026826202,2.14621
1307026886202,2.14420
1307026946202,2.13432
1307027006202,2.12857
1307027066202,2.12910
1307027126202,2.14983
1307027186202,2.14553
1307027246202,2.14369
1307027306202,2.16280
1307027366202,2.16083
1307027426202,2.13960
1307027486202,2.12153
1307027546202,2.15994
1307027606202,2.14015
1307027666202,2.15895
1307027726202,2.15344
1307027786202,2.16459
1307027846202,2.13494
1307027906202,2.16491
1307027966202,2.16309
1307028026202,2.14553
1307028086202,2.15233
1307028146202,2.15260
1307028206202,2.15083
1307028266202,2.15377
1307028326202,2.14285
1307028386202,2.14242
1307028446202,2.16169
1307028506202,2.14262
1307028566202,2.15073
1307028626202,2.13810
1307028686202,2.12233
1307028746202,2.16633
1307028806202,2.14634
1307028866202,2.16868
1307028926202,2.13775
1307028986202,2.16708
1307029046202,2.16299
1307029106202,2.15724
1307029166202,2.28052
1307029226202,2.15900
1307029286202,2.13905
1307029346202,2.16349
1307029406202,2.15953
1307029466202,2.14455
1307029526202,2.13565
1307029586202,2.12806
1307029646202,2.16324
1307029706202,2.19443
1307029766202,2.15545
1307029826202,2.16780
1307029886202,2.16045
1307029946202,2.16631
1307030006202,2.14625
1307030066202,2.15553
1307030126202,2.16974
1307030186202,2.15708
1307030246202,2.15605
1307030306202,2.13848
1307030366202,2.17368
1307030426211,2.14911
1307030486211,2.14625
1307030546211,2.15972
1307030606211,2.16415
1307030666211,2.14428
1307030726211,2.11832
1307030786211,2.16680
1307030846211,2.15973
1307030906211,2.15277
1307030966211,2.14735
1307031026211,2.16794
1307031086211,2.17924
1307031146211,2.14862
1307031206211,2.16316
1307031266211,2.12674
1307031326211,2.15124
1307031386211,2.14664
1307031446211,2.17525
1307031506212,2.14692
1307031566212,2.14940
1307031626212,2.14595
1307031686212,2.15574
1307031746211,2.17566
1307031806211,2.15079
1307031866211,2.14843
1307031926211,2.12855
1307031986211,2.13032
1307032046211,2.14849
1307032106211,2.13795
1307032166211,2.13699
1307032226211,2.16528
1307032286211,2.15505
1307032346211,2.13575
1307032406211,2.13784
1307032466211,2.13704
1307032526211,2.12842
1307032586211,2.15274
1307032646211,2.12772
1307032706211,2.12306
1307032766211,2.12775
1307032826211,2.12068
1307032886212,2.15762
1307032946212,2.11921
1307033006212,2.12911
1307033066211,2.10944
1307033126211,2.13745
1307033186211,2.12341
1307033246211,2.12685
1307033306211,2.13947
1307033366211,2.12937
1307033426211,2.11115
1307033486211,2.14048
1307033546211,2.13339
1307033606211,2.13274
1307033666211,2.11490
1307033726211,2.12570
1307033786211,2.10321
1307033846211,2.13528
1307033906211,2.09958
1307033966211,2.10263
1307034026221,2.13132
1307034086221,2.10928
1307034146221,2.10560
1307034206221,2.11819
1307034266221,2.11823
1307034326221,2.11898
1307034386221,2.11865
1307034446221,2.12665
1307034506221,2.09617
1307034566221,2.12082
1307034626221,2.10987
1307034686221,2.12853
1307034746221,2.11559
1307034806221,2.11264
1307034866221,2.09301
1307034926221,2.11755
1307034986221,2.12491
1307035046221,2.10219
1307035106221,2.12139
1307035166221,2.11812
1307035226221,2.13260
1307035286221,2.11373
1307035346221,2.10358
1307035406221,2.09385
1307035466221,2.09600
1307035526221,2.11750
1307035586221,2.09513
1307035646221,2.11508
1307035706221,2.10659
1307035766221,2.08867
1307035826221,2.09523
1307035886221,2.10838
1307035946221,2.11338
1307036006221,2.11261
1307036066221,2.11716
1307036126221,2.11588
1307036186221,2.08941
1307036246221,2.09919
1307036306221,2.10115
1307036366221,2.09816
1307036426221,2.13727
1307036486221,2.10204
1307036546221,2.10809
1307036606221,2.09123
1307036666221,2.12988
1307036726221,2.10194
1307036786221,2.08651
1307036846221,2.09720
1307036906221,2.10976
1307036966221,2.11281
1307037026221,2.11700
1307037086221,2.10189
1307037146221,2.09404
1307037206221,2.09352
1307037266221,2.10628
1307037326221,2.10883
1307037386221,2.10463
1307037446221,2.11018
1307037506221,2.10483
1307037566221,2.10420
1307037626230,2.10060
1307037686230,2.10367
1307037746230,2.09292
1307037806230,2.01667
1307037866230,2.10947
1307037926230,2.09513
1307037986230,2.11409
1307038046230,2.09804
1307038106230,2.08530
1307038166230,2.08120
1307038226230,2.09751
1307038286230,2.10641
1307038346230,2.09315
1307038406230,2.10656
1307038466230,2.08214
1307038526230,2.10448
1307038586230,2.09973
1307038646230,2.07837